This is the latest recevied weather packets stored in our database for station/object K5NOC-12. If no packets are shown the sender has not sent any weather packets the latest 10 day(s).
| Time | Temp. | Humidity | Pressure | Rain* | Wind** | Luminosity | Snow |
|---|---|---|---|---|---|---|---|
| 1777537564 | 10° C | 61% | 1017.7 hPa | 0 mm | - | - | - |
| 1777536664 | 10° C | 60% | 1017.9 hPa | 0 mm | - | - | - |
| 1777535764 | 10° C | 58% | 1018 hPa | 0 mm | - | - | - |
| 1777534863 | 10.56° C | 57% | 1018.1 hPa | 0 mm | - | - | - |
| 1777533963 | 11.11° C | 56% | 1018.1 hPa | 0 mm | - | - | - |
| 1777533063 | 11.11° C | 55% | 1018 hPa | 0 mm | - | - | - |
| 1777532163 | 11.11° C | 54% | 1018.2 hPa | 0 mm | - | - | - |
| 1777531263 | 11.11° C | 54% | 1017.9 hPa | 0 mm | - | - | - |
| 1777530363 | 11.67° C | 55% | 1017.7 hPa | 0 mm | - | - | - |
| 1777529463 | 11.67° C | 55% | 1017.7 hPa | 0 mm | - | - | - |
| 1777528562 | 11.67° C | 56% | 1017.6 hPa | 0 mm | - | - | - |
| 1777527662 | 11.67° C | 56% | 1017.5 hPa | 0 mm | - | - | - |
| 1777526762 | 12.22° C | 54% | 1017.6 hPa | 0 mm | - | - | - |
| 1777525862 | 12.78° C | 53% | 1017.5 hPa | 0 mm | - | - | - |
| 1777524962 | 12.78° C | 52% | 1017.5 hPa | 0 mm | - | - | - |
| 1777524062 | 12.78° C | 50% | 1017.4 hPa | 0 mm | - | - | - |
| 1777523161 | 13.33° C | 50% | 1017.5 hPa | 0 mm | - | - | - |
| 1777522261 | 13.33° C | 49% | 1017.5 hPa | 0 mm | - | - | - |
| 1777521361 | 13.89° C | 48% | 1017.4 hPa | 0 mm | - | - | - |
| 1777520461 | 13.89° C | 47% | 1017.4 hPa | 0 mm | - | - | - |
| 1777519561 | 15° C | 46% | 1017.3 hPa | 0 mm | - | - | - |
| 1777518661 | 15.56° C | 45% | 1017 hPa | 0 mm | - | - | - |
| 1777517761 | 15.56° C | 44% | 1016.9 hPa | 0 mm | - | - | - |
| 1777516861 | 16.11° C | 43% | 1016.5 hPa | 0 mm | - | - | - |
| 1777515960 | 16.11° C | 43% | 1016.4 hPa | 0 mm | - | - | - |
* Rain latest hour (hover to see other rain measurements)
** Current wind speed in m/s (hover to see current wind gust speed)